Change the Weather History Date:

Monday, February 3, 2014

  Actual Average Record
Temperature  
Mean Temperature 73 °F -  
Max Temperature 79 °F 68 °F 80 °F (1999)
Min Temperature 67 °F 55 °F 48 °F (2009)
Cooling Degree Days 8    
Growing Degree Days 23 (Base 50)    
Moisture  
Dew Point 70 °F    
Average Humidity 95    
Maximum Humidity 100    
Minimum Humidity 75    
Precipitation  
Precipitation 0.00 in - - ()
Sea Level Pressure  
Sea Level Pressure 30.09 in    
Wind  
Wind Speed 5 mph (SSE)    
Max Wind Speed 13 mph    
Max Gust Speed -    
Visibility 8 miles    
Events Rain    
Averages and records for this station are not official NWS values.
T = Trace of Precipitation, MM = Missing Value Source: NWS Daily Summary

Daily Weather History Graph

Daily Weather History Graph

Search for Another Location

Airport or City:

Trip Planner

Search our weather history database for the weather conditions in past years. The results will help you decide how hot, cold, wet, or windy it might be!

Date:

Astronomy

Feb. 03, 2014 Rise Set
Actual Time 7:08 AM EST 6:04 PM EST
Civil Twilight 6:44 AM EST 6:28 PM EST
Nautical Twilight 6:16 AM EST 6:56 PM EST
Astronomical Twilight 5:48 AM EST 7:24 PM EST
Moon 9:35 AM EST (2/3) 10:24 PM EST (2/3)
Length of Visible Light 11h 44m
Length of Day
10h 55m
Waxing Crescent, 19% of the Moon is Illuminated
Feb 3
Waxing Crescent
Feb 6
First Quarter
Feb 14
Full
Feb 22
Last Quarter
Mar 1
New

Hourly Weather History & Observations

Time (EST) Temp. Dew Point Humidity Pressure Visibility Wind Dir Wind Speed Gust Speed Precip Events Conditions
12:58 AM 70.9 °F 70.2 °F 98% 30.09 in 10.0 mi SSE 8.1 mph - N/A   Clear
1:58 AM 70.3 °F 69.4 °F 97% 30.09 in 10.0 mi SSE 9.2 mph - N/A   Clear
2:58 AM 71.4 °F 70.2 °F 96% 30.08 in 10.0 mi SSE 6.9 mph - N/A   Clear
3:58 AM 71.1 °F 69.8 °F 96% 30.08 in 10.0 mi SSE 5.8 mph - N/A   Clear
4:58 AM 71.1 °F 69.8 °F 96% 30.09 in 10.0 mi SSE 4.6 mph - N/A   Clear
5:38 AM 68.0 °F 68.0 °F 100% 30.08 in 6.0 mi SSE 2.3 mph - N/A   Clear
5:53 AM 69.8 °F 68.0 °F 94% 30.08 in 3.0 mi South 2.3 mph - N/A   Clear
5:58 AM 68.9 °F 68.7 °F 99% 30.09 in 2.0 mi SSE 2.3 mph - N/A   Clear
6:08 AM 68.0 °F 68.0 °F 100% 30.09 in 4.0 mi SSE 2.3 mph - N/A   Clear
6:18 AM 69.8 °F 69.8 °F 100% 30.09 in 9.0 mi SSE 3.5 mph - N/A   Clear
6:23 AM 69.8 °F 69.8 °F 100% 30.09 in 10.0 mi SSE 2.3 mph - N/A   Clear
6:28 AM 69.8 °F 69.8 °F 100% 30.09 in 5.0 mi ESE 1.2 mph - N/A   Clear
6:33 AM 69.8 °F 69.8 °F 100% 30.09 in 2.5 mi ESE 1.2 mph - N/A   Clear
6:38 AM 68.0 °F 68.0 °F 100% 30.09 in 1.5 mi Calm Calm - N/A   Clear
6:48 AM 68.0 °F 68.0 °F 100% 30.09 in 2.0 mi Calm Calm - N/A   Clear
6:53 AM 68.0 °F 68.0 °F 100% 30.10 in 4.0 mi Calm Calm - N/A   Clear
6:58 AM 67.5 °F 67.5 °F 100% 30.12 in 5.0 mi Calm Calm - N/A   Clear
7:03 AM 68.0 °F 68.0 °F 100% 30.10 in 1.8 mi Calm Calm - N/A   Clear
7:08 AM 68.0 °F 68.0 °F 100% 30.10 in 1.0 mi WSW 3.5 mph - N/A   Clear
7:13 AM 68.0 °F 68.0 °F 100% 30.10 in 1.2 mi WSW 2.3 mph - N/A   Partly Cloudy
7:14 AM 68.0 °F 68.0 °F 100% 30.10 in 1.8 mi WSW 2.3 mph - N/A Rain Light Rain
7:19 AM 68.0 °F 68.0 °F 100% 30.10 in 3.0 mi SW 3.5 mph - N/A Rain Light Rain
7:29 AM 68.0 °F 68.0 °F 100% 30.10 in 6.0 mi ESE 2.3 mph - N/A   Scattered Clouds
7:58 AM 68.9 °F 68.9 °F 100% 30.12 in 10.0 mi South 2.3 mph - N/A   Partly Cloudy
8:58 AM 73.0 °F 72.1 °F 97% 30.14 in 10.0 mi SSW 5.8 mph - N/A   Clear
9:58 AM 76.1 °F 72.5 °F 89% 30.14 in 10.0 mi SW 5.8 mph - N/A   Clear
10:58 AM 79.5 °F 70.9 °F 75% 30.14 in 10.0 mi SW 8.1 mph - N/A   Clear
11:58 AM 73.6 °F 70.2 °F 89% 30.12 in 10.0 mi ENE 6.9 mph - N/A   Partly Cloudy
12:57 PM 75.2 °F 71.6 °F 89% 30.08 in 10.0 mi East 8.1 mph - N/A   Drizzle
12:58 PM 75.6 °F 71.2 °F 86% 30.09 in 10.0 mi East 8.1 mph - N/A   Drizzle
1:07 PM 75.2 °F 71.6 °F 89% 30.08 in 10.0 mi East 8.1 mph - N/A   Clear
1:22 PM 75.2 °F 71.6 °F 89% 30.07 in 10.0 mi East 5.8 mph - N/A   Light Drizzle
1:35 PM 75.2 °F 71.6 °F 89% 30.06 in 10.0 mi East 5.8 mph - N/A   Clear
1:58 PM 74.8 °F 71.6 °F 90% 30.06 in 10.0 mi East 8.1 mph - N/A   Clear
2:58 PM 74.3 °F 70.9 °F 89% 30.06 in 10.0 mi SE 10.4 mph - N/A   Partly Cloudy
3:58 PM 76.1 °F 71.2 °F 85% 30.04 in 10.0 mi SE 12.7 mph - N/A   Clear
4:58 PM 74.8 °F 71.2 °F 88% 30.06 in 10.0 mi SE 9.2 mph - N/A   Clear
5:58 PM 72.7 °F 70.7 °F 93% 30.06 in 10.0 mi SE 8.1 mph - N/A   Clear
6:58 PM 71.4 °F 70.5 °F 97% 30.08 in 10.0 mi SSE 9.2 mph - N/A   Clear
7:58 PM 71.8 °F 70.9 °F 97% 30.09 in 10.0 mi SSE 10.4 mph - N/A   Clear
8:58 PM 72.5 °F 71.4 °F 96% 30.11 in 10.0 mi SSE 10.4 mph - N/A   Partly Cloudy
9:58 PM 72.7 °F 71.8 °F 97% 30.12 in 10.0 mi SSE 10.4 mph - N/A   Partly Cloudy
10:58 PM 71.8 °F 71.1 °F 98% 30.12 in 10.0 mi SSE 11.5 mph - N/A   Clear
11:58 PM 71.1 °F 70.9 °F 99% 30.11 in 10.0 mi SSE 11.5 mph - N/A   Partly Cloudy